Flag for U.S.A. Weather past 2 weeks in Boston, Massachusetts, U.S.A.

Now
65 °F

Clear.


Feels Like: 65 °F
Forecast: 63 / 81 °F
Wind: 3 mph from West

Location: Logan International Airport

Current Time: Aug 29, 2015 at 5:55:49 AM

Latest Report: Aug 29, 2015 at 4:54 AM


Visibility: 10 mi

Pressure: 30.16 "Hg

Humidity: 76%

Dew point: 57 °F

Location of BostonLocation

Historic Weather in Boston — Graph

°F

Boston temperature yesterday

Maximum temperature yesterday: 74 °F (at 12:54 PM)
Minimum temperature yesterday: 64 °F (at 5:54 AM)
Average temperature yesterday: 70 °F

Past Weeks' High & Low Weather Summary

 TemperatureHumidityPressure
High90 °F (Aug 15, 3:54 PM)100% (Aug 20, 11:54 PM)30.17 "Hg (Aug 20, 11:54 PM)
Low64 °F (Aug 14, 5:54 AM)37% (Aug 14, 10:54 AM)29.83 "Hg (Aug 25, 5:54 PM)
Average74 °F76%30.02 "Hg
* Reported Aug 14 2:54 AM — Aug 29 2:54 AM, Boston, Weather by CustomWeather, © 2015

Note: Actual official high and low records may vary slightly from our data, if they occured in-between our weather recording intervals... More about our weather records

Advertising

Boston weather history for previous 24 hours

 ConditionsComfort  
Time TempWeatherWind HumidityBarometerVisibility
2:54 AM
Sat, Aug 29
64 °FClear.5 mph78%30.16 "Hg10 mi
1:54 AM66 °FClear.5 mph75%30.16 "Hg10 mi
12:54 AM68 °FPassing clouds.5 mph68%30.17 "Hg10 mi
11:54 PM
Fri, Aug 28
71 °FPassing clouds.6 mph61%30.16 "Hg10 mi
10:54 PM71 °FPassing clouds.7 mph66%30.16 "Hg10 mi
9:54 PM69 °FPassing clouds.6 mph73%30.15 "Hg10 mi
8:54 PM69 °FPassing clouds.5 mph73%30.14 "Hg10 mi
7:54 PM70 °FScattered clouds.8 mph73%30.12 "Hg10 mi
6:54 PM71 °FScattered clouds.6 mph73%30.11 "Hg10 mi
5:54 PM72 °FPassing clouds.10 mph68%30.10 "Hg10 mi
4:54 PM72 °FScattered clouds.14 mph64%30.10 "Hg10 mi
3:54 PM74 °FScattered clouds.12 mph56%30.11 "Hg10 mi
2:54 PM74 °FScattered clouds.10 mph56%30.12 "Hg10 mi
1:54 PM74 °FScattered clouds.9 mph52%30.13 "Hg10 mi
12:54 PM74 °FScattered clouds.9 mph53%30.14 "Hg10 mi
11:54 AM73 °FScattered clouds.8 mph55%30.15 "Hg10 mi
10:54 AM71 °FScattered clouds.5 mph59%30.16 "Hg10 mi
9:54 AM72 °FPassing clouds.3 mph55%30.15 "Hg10 mi
8:54 AM69 °FPassing clouds.5 mph61%30.14 "Hg10 mi
7:54 AM66 °FPassing clouds.8 mph65%30.14 "Hg10 mi
6:54 AM65 °FPassing clouds.8 mph68%30.12 "Hg10 mi
5:54 AM64 °FPassing clouds.9 mph68%30.10 "Hg10 mi
Weather by CustomWeather, © 2015

See weather overviewHow to use our weather pages